| time (UTC) | temp F | wind direction | speed MPH | gust MPH | rain 1hr in | rain 24hr in | rain mn in | humidity % | barometer mb |
| 20260503220038 | 44 | 318 | 9.0 | 19.0 | 0.01 | 0.01 | 0.01 | 90 | 1006.2 |
| 20260503214537 | 44 | 219 | 9.0 | 19.0 | 0.01 | 0.01 | 0.01 | 91 | 1006.4 |
| 20260503213037 | 44 | 259 | 8.0 | 16.0 | 0.00 | 0.00 | 0.00 | 91 | 1006.3 |
| 20260503211537 | 43 | 254 | 8.0 | 18.0 | 0.00 | 0.00 | 0.00 | 91 | 1006.3 |
| 20260503210040 | 43 | 278 | 6.0 | 18.0 | 0.00 | 0.00 | 0.00 | 90 | 1006.4 |
| 20260503204540 | 43 | 285 | 8.0 | 17.0 | 0.00 | 0.00 | 0.00 | 90 | 1006.5 |
| 20260503203043 | 43 | 270 | 11.0 | 19.0 | 0.00 | 0.00 | 0.00 | 89 | 1006.8 |
| 20260503201539 | 44 | 285 | 13.0 | 28.0 | 0.00 | 0.00 | 0.00 | 87 | 1007.0 |
| 20260503200045 | 46 | 277 | 16.0 | 27.0 | 0.00 | 0.00 | 0.00 | 82 | 1007.2 |
| 20260503194538 | 48 | 274 | 16.0 | 30.0 | 0.00 | 0.00 | 0.00 | 73 | 1006.9 |
| 20260503193042 | 49 | 263 | 8.0 | 17.0 | 0.00 | 0.00 | 0.00 | 67 | 1006.8 |
| 20260503191539 | 49 | 276 | 7.0 | 20.0 | 0.00 | 0.00 | 0.00 | 70 | 1007.0 |
| 20260503190038 | 49 | 309 | 18.0 | 35.0 | 0.00 | 0.00 | 0.00 | 68 | 1007.6 |
| 20260503184556 | 53 | 290 | 16.0 | 26.0 | 0.00 | 0.00 | 0.00 | 53 | 1007.2 |
| 20260503183037 | 53 | 178 | 8.0 | 19.0 | 0.00 | 0.00 | 0.00 | 53 | 1006.7 |
| 20260503181537 | 52 | 289 | 10.0 | 19.0 | 0.00 | 0.00 | 0.00 | 53 | 1007.2 |
| 20260503180039 | 52 | 255 | 9.0 | 20.0 | 0.00 | 0.00 | 0.00 | 56 | 1007.7 |
| 20260503174540 | 52 | 292 | 13.0 | 24.0 | 0.00 | 0.00 | 0.00 | 53 | 1007.9 |
| 20260503173038 | 53 | 79 | 9.0 | 17.0 | 0.00 | 0.00 | 0.00 | 53 | 1008.1 |
| 20260503171602 | 50 | 266 | 9.0 | 16.0 | 0.00 | 0.00 | 0.00 | 54 | 1008.1 |
| 20260503081540 | 30 | 263 | 1.0 | 4.0 | 0.00 | 0.00 | 0.00 | 76 | 1011.3 |
| 20260503071603 | 29 | 265 | 4.0 | 8.0 | 0.00 | 0.00 | 0.00 | 73 | 1011.4 |
| 20260503054556 | 30 | 279 | 2.0 | 4.0 | 0.00 | 0.00 | 0.00 | 68 | 1012.0 |
| 20260503053041 | 30 | 277 | 4.0 | 6.0 | 0.00 | 0.00 | 0.00 | 69 | 1012.1 |
| 20260503051539 | 30 | 275 | 3.0 | 6.0 | 0.00 | 0.00 | 0.00 | 65 | 1012.2 |
| 20260503050044 | 30 | 276 | 3.0 | 4.0 | 0.00 | 0.00 | 0.00 | 66 | 1012.3 |
| 20260503044549 | 31 | 270 | 3.0 | 7.0 | 0.00 | 0.00 | 0.00 | 65 | 1012.3 |
| 20260503043045 | 31 | 284 | 4.0 | 7.0 | 0.00 | 0.00 | 0.00 | 64 | 1012.5 |
| 20260503041537 | 31 | 273 | 3.0 | 7.0 | 0.00 | 0.00 | 0.00 | 63 | 1012.5 |
| 20260503040041 | 31 | 291 | 4.0 | 7.0 | 0.00 | 0.00 | 0.00 | 64 | 1012.5 |
| 20260503034538 | 31 | 282 | 4.0 | 8.0 | 0.00 | 0.00 | 0.00 | 63 | 1012.6 |
| 20260503033038 | 32 | 278 | 3.0 | 8.0 | 0.00 | 0.00 | 0.00 | 61 | 1012.6 |
| 20260503031537 | 32 | 269 | 3.0 | 6.0 | 0.00 | 0.00 | 0.00 | 63 | 1012.7 |
| 20260503030036 | 32 | 291 | 2.0 | 3.0 | 0.00 | 0.00 | 0.00 | 61 | 1012.7 |
| 20260503024540 | 33 | 284 | 1.0 | 4.0 | 0.00 | 0.00 | 0.00 | 60 | 1012.8 |
| 20260503023041 | 33 | 288 | 1.0 | 4.0 | 0.00 | 0.00 | 0.00 | 59 | 1013.0 |
| 20260503021544 | 33 | 289 | 2.0 | 7.0 | 0.00 | 0.00 | 0.00 | 58 | 1012.9 |
| 20260503020042 | 33 | 275 | 2.0 | 6.0 | 0.00 | 0.00 | 0.00 | 57 | 1012.9 |
| 20260503014537 | 34 | 263 | 2.0 | 6.0 | 0.00 | 0.00 | 0.00 | 57 | 1012.9 |
| 20260503013041 | 34 | 293 | 4.0 | 8.0 | 0.00 | 0.00 | 0.00 | 56 | 1012.9 |
| 20260503011549 | 35 | 288 | 5.0 | 8.0 | 0.00 | 0.00 | 0.00 | 56 | 1012.8 |
| 20260503010041 | 36 | 304 | 3.0 | 8.0 | 0.00 | 0.00 | 0.00 | 55 | 1012.7 |
| 20260503004538 | 36 | 287 | 3.0 | 9.0 | 0.00 | 0.00 | 0.00 | 54 | 1012.6 |
| 20260503003037 | 37 | 316 | 3.0 | 8.0 | 0.00 | 0.00 | 0.00 | 53 | 1012.6 |
| 20260503001544 | 37 | 275 | 4.0 | 9.0 | 0.00 | 0.00 | 0.00 | 52 | 1012.7 |
| 20260503000055 | 38 | 316 | 6.0 | 10.0 | 0.00 | 0.00 | 0.00 | 49 | 1012.6 |
| 20260502234548 | 39 | 321 | 9.0 | 14.0 | 0.00 | 0.00 | 0.00 | 45 | 1012.7 |
| 20260502233038 | 39 | 302 | 8.0 | 15.0 | 0.00 | 0.00 | 0.00 | 44 | 1012.6 |
| 20260502231539 | 39 | 286 | 12.0 | 17.0 | 0.00 | 0.00 | 0.00 | 46 | 1012.7 |
| 20260502230038 | 40 | 319 | 7.0 | 15.0 | 0.00 | 0.00 | 0.00 | 46 | 1012.7 |
| 20260502224537 | 40 | 267 | 8.0 | 16.0 | 0.00 | 0.00 | 0.00 | 49 | 1012.8 |
| 20260502223038 | 40 | 321 | 11.0 | 22.0 | 0.00 | 0.00 | 0.00 | 52 | 1012.6 |
| 20260502221541 | 40 | 306 | 5.0 | 12.0 | 0.00 | 0.00 | 0.00 | 54 | 1012.7 |
| 20260502220048 | 38 | 326 | 6.0 | 15.0 | 0.00 | 0.00 | 0.00 | 58 | 1012.7 |